Year,Month,Day,Hour,Minute,Value (Times are PST for windspeed in km/hr)
2010,06,04,00,00,0.00
2010,06,04,00,01,0.20
2010,06,04,00,02,0.10
2010,06,04,00,03,0.10
2010,06,04,00,04,0.10
2010,06,04,00,05,0.00
2010,06,04,00,06,0.00
2010,06,04,00,07,0.40
2010,06,04,00,08,0.20
2010,06,04,00,09,1.10
2010,06,04,00,10,2.00
2010,06,04,00,11,3.70
2010,06,04,00,12,1.60
2010,06,04,00,13,1.50
2010,06,04,00,14,0.00
2010,06,04,00,15,1.30
2010,06,04,00,16,2.20
2010,06,04,00,17,0.70
2010,06,04,00,18,0.90
2010,06,04,00,19,1.00
2010,06,04,00,20,0.50
2010,06,04,00,21,1.40
2010,06,04,00,22,0.10
2010,06,04,00,23,0.00
2010,06,04,00,24,0.00
2010,06,04,00,25,0.00
2010,06,04,00,26,0.00
2010,06,04,00,27,0.00
2010,06,04,00,28,0.00
2010,06,04,00,29,0.00
2010,06,04,00,30,0.20
2010,06,04,00,31,0.00
2010,06,04,00,32,0.30
2010,06,04,00,33,0.10
2010,06,04,00,34,0.00
2010,06,04,00,35,0.00
2010,06,04,00,36,0.00
2010,06,04,00,37,0.00
2010,06,04,00,38,0.00
2010,06,04,00,39,0.00
2010,06,04,00,40,0.00
2010,06,04,00,41,0.00
2010,06,04,00,42,0.00
2010,06,04,00,43,0.10
2010,06,04,00,44,0.20
2010,06,04,00,45,0.10
2010,06,04,00,46,0.10
2010,06,04,00,47,0.00
2010,06,04,00,48,0.00
2010,06,04,00,49,0.00
2010,06,04,00,50,0.00
2010,06,04,00,51,0.00
2010,06,04,00,52,0.00
2010,06,04,00,53,0.20
2010,06,04,00,54,0.10
2010,06,04,00,55,0.00
2010,06,04,00,56,0.00
2010,06,04,00,57,0.10
2010,06,04,00,58,0.10
2010,06,04,00,59,0.00
2010,06,04,01,00,0.20
2010,06,04,01,01,0.20
2010,06,04,01,02,0.20
2010,06,04,01,03,0.20
2010,06,04,01,04,0.40
2010,06,04,01,05,0.20
2010,06,04,01,06,0.40
2010,06,04,01,07,1.90
2010,06,04,01,08,0.20
2010,06,04,01,09,0.90
2010,06,04,01,10,0.20
2010,06,04,01,11,1.40
2010,06,04,01,12,1.50
2010,06,04,01,13,0.60
2010,06,04,01,14,0.20
2010,06,04,01,15,0.10
2010,06,04,01,16,0.10
2010,06,04,01,17,0.00
2010,06,04,01,18,0.30
2010,06,04,01,19,0.00
2010,06,04,01,20,0.10
2010,06,04,01,21,0.10
2010,06,04,01,22,0.00
2010,06,04,01,23,0.10
2010,06,04,01,24,0.00
2010,06,04,01,25,0.10
2010,06,04,01,26,0.30
2010,06,04,01,27,1.20
2010,06,04,01,28,0.20
2010,06,04,01,29,0.10
2010,06,04,01,30,0.10
2010,06,04,01,31,0.00
2010,06,04,01,32,0.00
2010,06,04,01,33,0.00
2010,06,04,01,34,2.90
2010,06,04,01,35,1.80
2010,06,04,01,36,2.50
2010,06,04,01,37,1.40
2010,06,04,01,38,1.90
2010,06,04,01,39,2.20
2010,06,04,01,40,3.50
2010,06,04,01,41,2.40
2010,06,04,01,42,3.70
2010,06,04,01,43,2.70
2010,06,04,01,44,2.30
2010,06,04,01,45,5.20
2010,06,04,01,46,4.80
2010,06,04,01,47,2.30
2010,06,04,01,48,2.40
2010,06,04,01,49,0.20
2010,06,04,01,50,0.90
2010,06,04,01,51,0.10
2010,06,04,01,52,0.00
2010,06,04,01,53,0.00
2010,06,04,01,54,0.00
2010,06,04,01,55,0.10
2010,06,04,01,56,0.00
2010,06,04,01,57,0.00
2010,06,04,01,58,0.00
2010,06,04,01,59,0.00
2010,06,04,02,00,0.00
2010,06,04,02,01,0.00
2010,06,04,02,02,0.00
2010,06,04,02,03,0.00
2010,06,04,02,04,0.00
2010,06,04,02,05,0.00
2010,06,04,02,06,0.00
2010,06,04,02,07,0.00
2010,06,04,02,08,0.00
2010,06,04,02,09,0.00
2010,06,04,02,10,0.00
2010,06,04,02,11,0.10
2010,06,04,02,12,0.30
2010,06,04,02,13,0.10
2010,06,04,02,14,0.10
2010,06,04,02,15,0.00
2010,06,04,02,16,0.00
2010,06,04,02,17,0.10
2010,06,04,02,18,0.30
2010,06,04,02,19,1.50
2010,06,04,02,20,1.50
2010,06,04,02,21,1.40
2010,06,04,02,22,1.30
2010,06,04,02,23,0.00
2010,06,04,02,24,0.00
2010,06,04,02,25,0.00
2010,06,04,02,26,0.50
2010,06,04,02,27,0.10
2010,06,04,02,28,0.30
2010,06,04,02,29,0.00
2010,06,04,02,30,0.00
2010,06,04,02,31,0.00
2010,06,04,02,32,0.00
2010,06,04,02,33,0.00
2010,06,04,02,34,0.10
2010,06,04,02,35,0.10
2010,06,04,02,36,0.50
2010,06,04,02,37,0.10
2010,06,04,02,38,0.40
2010,06,04,02,39,0.90
2010,06,04,02,40,0.10
2010,06,04,02,41,0.20
2010,06,04,02,42,0.00
2010,06,04,02,43,0.10
2010,06,04,02,44,0.00
2010,06,04,02,45,0.00
2010,06,04,02,46,0.00
2010,06,04,02,47,0.00
2010,06,04,02,48,0.00
2010,06,04,02,49,0.00
2010,06,04,02,50,0.00
2010,06,04,02,51,0.00
2010,06,04,02,52,0.00
2010,06,04,02,53,0.00
2010,06,04,02,54,0.00
2010,06,04,02,55,0.00
2010,06,04,02,56,0.00
2010,06,04,02,57,0.10
2010,06,04,02,58,0.00
2010,06,04,02,59,1.00
2010,06,04,03,00,0.20
2010,06,04,03,01,0.10
2010,06,04,03,02,0.00
2010,06,04,03,03,0.10
2010,06,04,03,04,0.00
2010,06,04,03,05,0.10
2010,06,04,03,06,0.00
2010,06,04,03,07,0.00
2010,06,04,03,08,0.30
2010,06,04,03,09,0.00
2010,06,04,03,10,0.00
2010,06,04,03,11,0.10
2010,06,04,03,12,0.00
2010,06,04,03,13,0.00
2010,06,04,03,14,0.00
2010,06,04,03,15,0.00
2010,06,04,03,16,0.10
2010,06,04,03,17,0.20
2010,06,04,03,18,0.00
2010,06,04,03,19,0.10
2010,06,04,03,20,0.20
2010,06,04,03,21,0.10
2010,06,04,03,22,0.00
2010,06,04,03,23,0.00
2010,06,04,03,24,0.00
2010,06,04,03,25,0.00
2010,06,04,03,26,0.10
2010,06,04,03,27,0.20
2010,06,04,03,28,0.00
2010,06,04,03,29,0.00
2010,06,04,03,30,0.00
2010,06,04,03,31,0.20
2010,06,04,03,32,0.00
2010,06,04,03,33,0.00
2010,06,04,03,34,0.00
2010,06,04,03,35,0.00
2010,06,04,03,36,0.00
2010,06,04,03,37,1.00
2010,06,04,03,38,0.70
2010,06,04,03,39,0.10
2010,06,04,03,40,0.00
2010,06,04,03,41,0.10
2010,06,04,03,42,0.20
2010,06,04,03,43,0.00
2010,06,04,03,44,0.00
2010,06,04,03,45,0.00
2010,06,04,03,46,0.00
2010,06,04,03,47,0.00
2010,06,04,03,48,0.00
2010,06,04,03,49,0.00
2010,06,04,03,50,0.00
2010,06,04,03,51,0.30
2010,06,04,03,52,0.70
2010,06,04,03,53,1.20
2010,06,04,03,54,0.70
2010,06,04,03,55,1.60
2010,06,04,03,56,0.30
2010,06,04,03,57,0.00
2010,06,04,03,58,1.90
2010,06,04,03,59,2.90
2010,06,04,04,00,2.60
2010,06,04,04,01,2.40
2010,06,04,04,02,3.90
2010,06,04,04,03,2.90
2010,06,04,04,04,2.90
2010,06,04,04,05,2.50
2010,06,04,04,06,1.20
2010,06,04,04,07,0.00
2010,06,04,04,08,0.70
2010,06,04,04,09,1.60
2010,06,04,04,10,2.80
2010,06,04,04,11,0.20
2010,06,04,04,12,1.00
2010,06,04,04,13,1.30
2010,06,04,04,14,0.10
2010,06,04,04,15,0.50
2010,06,04,04,16,1.40
2010,06,04,04,17,1.40
2010,06,04,04,18,2.10
2010,06,04,04,19,0.80
2010,06,04,04,20,1.70
2010,06,04,04,21,2.00
2010,06,04,04,22,0.80
2010,06,04,04,23,1.00
2010,06,04,04,24,1.00
2010,06,04,04,25,1.40
2010,06,04,04,26,1.50
2010,06,04,04,27,2.50
2010,06,04,04,28,2.80
2010,06,04,04,29,3.40
2010,06,04,04,30,3.00
2010,06,04,04,31,2.00
2010,06,04,04,32,2.20
2010,06,04,04,33,2.90
2010,06,04,04,34,1.50
2010,06,04,04,35,2.60
2010,06,04,04,36,3.10
2010,06,04,04,37,3.30
2010,06,04,04,38,3.10
2010,06,04,04,39,1.70
2010,06,04,04,40,2.40
2010,06,04,04,41,2.30
2010,06,04,04,42,1.30
2010,06,04,04,43,1.40
2010,06,04,04,44,2.60
2010,06,04,04,45,3.30
2010,06,04,04,46,2.20
2010,06,04,04,47,3.00
2010,06,04,04,48,3.90
2010,06,04,04,49,3.60
2010,06,04,04,50,2.50
2010,06,04,04,51,2.10
2010,06,04,04,52,2.10
2010,06,04,04,53,1.40
2010,06,04,04,54,1.50
2010,06,04,04,55,2.30
2010,06,04,04,56,3.10
2010,06,04,04,57,3.10
2010,06,04,04,58,1.70
2010,06,04,04,59,2.80
2010,06,04,05,00,2.80
2010,06,04,05,01,2.50
2010,06,04,05,02,2.10
2010,06,04,05,03,1.80
2010,06,04,05,04,2.30
2010,06,04,05,05,1.40
2010,06,04,05,06,1.80
2010,06,04,05,07,2.40
2010,06,04,05,08,2.50
2010,06,04,05,09,1.90
2010,06,04,05,10,3.40
2010,06,04,05,11,3.20
2010,06,04,05,12,3.40
2010,06,04,05,13,2.50
2010,06,04,05,14,3.40
2010,06,04,05,15,2.90
2010,06,04,05,16,2.80
2010,06,04,05,17,4.20
2010,06,04,05,18,1.30
2010,06,04,05,19,1.90
2010,06,04,05,20,2.20
2010,06,04,05,21,2.40
2010,06,04,05,22,1.80
2010,06,04,05,23,2.10
2010,06,04,05,24,3.00
2010,06,04,05,25,1.70
2010,06,04,05,26,1.00
2010,06,04,05,27,2.60
2010,06,04,05,28,3.10
2010,06,04,05,29,2.60
2010,06,04,05,30,1.90
2010,06,04,05,31,2.40
2010,06,04,05,32,2.00
2010,06,04,05,33,1.70
2010,06,04,05,34,2.30
2010,06,04,05,35,2.50
2010,06,04,05,36,2.70
2010,06,04,05,37,1.80
2010,06,04,05,38,1.50
2010,06,04,05,39,0.50
2010,06,04,05,40,0.80
2010,06,04,05,41,0.70
2010,06,04,05,42,0.90
2010,06,04,05,43,0.50
2010,06,04,05,44,0.70
2010,06,04,05,45,0.50
2010,06,04,05,46,0.70
2010,06,04,05,47,0.90
2010,06,04,05,48,2.10
2010,06,04,05,49,1.40
2010,06,04,05,50,2.20
2010,06,04,05,51,2.50
2010,06,04,05,52,0.70
2010,06,04,05,53,1.30
2010,06,04,05,54,1.30
2010,06,04,05,55,2.30
2010,06,04,05,56,1.20
2010,06,04,05,57,0.70
2010,06,04,05,58,1.40
2010,06,04,05,59,1.50
2010,06,04,06,00,1.50
2010,06,04,06,01,1.20
2010,06,04,06,02,3.70
2010,06,04,06,03,3.00
2010,06,04,06,04,1.90
2010,06,04,06,05,3.00
2010,06,04,06,06,2.30
2010,06,04,06,07,3.10
2010,06,04,06,08,3.10
2010,06,04,06,09,1.90
2010,06,04,06,10,2.10
2010,06,04,06,11,2.60
2010,06,04,06,12,3.90
2010,06,04,06,13,3.70
2010,06,04,06,14,4.40
2010,06,04,06,15,3.30
2010,06,04,06,16,2.50
2010,06,04,06,17,2.30
2010,06,04,06,18,3.30
2010,06,04,06,19,3.10
2010,06,04,06,20,2.40
2010,06,04,06,21,1.40
2010,06,04,06,22,1.20
2010,06,04,06,23,2.90
2010,06,04,06,24,1.60
2010,06,04,06,25,2.60
2010,06,04,06,26,4.20
2010,06,04,06,27,2.40
2010,06,04,06,28,1.00
2010,06,04,06,29,0.10
2010,06,04,06,30,0.40
2010,06,04,06,31,2.40
2010,06,04,06,32,1.80
2010,06,04,06,33,1.70
2010,06,04,06,34,2.40
2010,06,04,06,35,2.00
2010,06,04,06,36,3.60
2010,06,04,06,37,2.90
2010,06,04,06,38,0.50
2010,06,04,06,39,2.00
2010,06,04,06,40,2.00
2010,06,04,06,41,3.50
2010,06,04,06,42,2.60
2010,06,04,06,43,0.70
2010,06,04,06,44,0.00
2010,06,04,06,45,0.10
2010,06,04,06,46,1.20
2010,06,04,06,47,2.10
2010,06,04,06,48,0.90
2010,06,04,06,49,0.00
2010,06,04,06,50,0.00
2010,06,04,06,51,0.00
2010,06,04,06,52,0.00
2010,06,04,06,53,0.00
2010,06,04,06,54,0.10
2010,06,04,06,55,0.60
2010,06,04,06,56,0.10
2010,06,04,06,57,0.10
2010,06,04,06,58,0.40
2010,06,04,06,59,0.20
2010,06,04,07,00,0.10
2010,06,04,07,01,0.50
2010,06,04,07,02,0.00
2010,06,04,07,03,0.20
2010,06,04,07,04,0.80
2010,06,04,07,05,0.50
2010,06,04,07,06,0.10
2010,06,04,07,07,0.20
2010,06,04,07,08,0.10
2010,06,04,07,09,0.00
2010,06,04,07,10,0.00
2010,06,04,07,11,0.20
2010,06,04,07,12,0.00
2010,06,04,07,13,0.10
2010,06,04,07,14,0.10
2010,06,04,07,15,2.10
2010,06,04,07,16,2.30
2010,06,04,07,17,1.70
2010,06,04,07,18,0.20
2010,06,04,07,19,0.10
2010,06,04,07,20,1.90
2010,06,04,07,21,2.10
2010,06,04,07,22,1.90
2010,06,04,07,23,0.20
2010,06,04,07,24,0.50
2010,06,04,07,25,0.00
2010,06,04,07,26,0.10
2010,06,04,07,27,0.10
2010,06,04,07,28,1.00
2010,06,04,07,29,0.90
2010,06,04,07,30,2.00
2010,06,04,07,31,0.10
2010,06,04,07,32,0.70
2010,06,04,07,33,3.10
2010,06,04,07,34,1.00
2010,06,04,07,35,1.40
2010,06,04,07,36,0.20
2010,06,04,07,37,0.60
2010,06,04,07,38,1.00
2010,06,04,07,39,2.10
2010,06,04,07,40,1.10
2010,06,04,07,41,0.10
2010,06,04,07,42,0.30
2010,06,04,07,43,0.10
2010,06,04,07,44,0.00
2010,06,04,07,45,0.20
2010,06,04,07,46,1.20
2010,06,04,07,47,1.20
2010,06,04,07,48,0.30
2010,06,04,07,49,0.00
2010,06,04,07,50,0.40
2010,06,04,07,51,0.60
2010,06,04,07,52,0.30
2010,06,04,07,53,0.00
2010,06,04,07,54,0.20
2010,06,04,07,55,0.00
2010,06,04,07,56,1.60
2010,06,04,07,57,0.80
2010,06,04,07,58,0.00
2010,06,04,07,59,0.90
2010,06,04,08,00,0.10
2010,06,04,08,01,0.70
2010,06,04,08,02,1.70
2010,06,04,08,03,0.40
2010,06,04,08,04,0.00
2010,06,04,08,05,0.10
2010,06,04,08,06,0.20
2010,06,04,08,07,0.00
2010,06,04,08,08,0.00
2010,06,04,08,09,0.90
2010,06,04,08,10,0.00
2010,06,04,08,11,0.00
2010,06,04,08,12,0.00
2010,06,04,08,13,0.30
2010,06,04,08,14,0.60
2010,06,04,08,15,1.30
2010,06,04,08,16,0.70
2010,06,04,08,17,3.90
2010,06,04,08,18,1.80
2010,06,04,08,19,1.30
2010,06,04,08,20,0.10
2010,06,04,08,21,1.30
2010,06,04,08,22,3.80
2010,06,04,08,23,0.60
2010,06,04,08,24,2.90
2010,06,04,08,25,4.50
2010,06,04,08,26,2.40
2010,06,04,08,27,1.60
2010,06,04,08,28,0.00
2010,06,04,08,29,0.20
2010,06,04,08,30,1.80
2010,06,04,08,31,3.40
2010,06,04,08,32,2.60
2010,06,04,08,33,1.50
2010,06,04,08,34,3.10
2010,06,04,08,35,1.10
2010,06,04,08,36,0.10
2010,06,04,08,37,0.70
2010,06,04,08,38,0.90
2010,06,04,08,39,3.50
2010,06,04,08,40,6.30
2010,06,04,08,41,4.00
2010,06,04,08,42,4.80
2010,06,04,08,43,6.00
2010,06,04,08,44,3.20
2010,06,04,08,45,4.70
2010,06,04,08,46,3.40
2010,06,04,08,47,1.50
2010,06,04,08,48,2.50
2010,06,04,08,49,0.20
2010,06,04,08,50,0.10
2010,06,04,08,51,4.30
2010,06,04,08,52,1.50
2010,06,04,08,53,0.60
2010,06,04,08,54,0.20
2010,06,04,08,55,2.60
2010,06,04,08,56,3.70
2010,06,04,08,57,3.40
2010,06,04,08,58,4.60
2010,06,04,08,59,2.00
2010,06,04,09,00,5.00
2010,06,04,09,01,6.60
2010,06,04,09,02,6.10
2010,06,04,09,03,5.20
2010,06,04,09,04,6.70
2010,06,04,09,05,5.50
2010,06,04,09,06,2.80
2010,06,04,09,07,1.20
2010,06,04,09,08,0.70
2010,06,04,09,09,1.60
2010,06,04,09,10,4.00
2010,06,04,09,11,0.80
2010,06,04,09,12,3.10
2010,06,04,09,13,2.10
2010,06,04,09,14,0.70
2010,06,04,09,15,0.50
2010,06,04,09,16,1.50
2010,06,04,09,17,1.00
2010,06,04,09,18,2.50
2010,06,04,09,19,3.70
2010,06,04,09,20,2.80
2010,06,04,09,21,1.10
2010,06,04,09,22,2.10
2010,06,04,09,23,0.80
2010,06,04,09,24,2.80
2010,06,04,09,25,2.10
2010,06,04,09,26,0.70
2010,06,04,09,27,1.10
2010,06,04,09,28,0.70
2010,06,04,09,29,1.50
2010,06,04,09,30,6.20
2010,06,04,09,31,2.00
2010,06,04,09,32,4.40
2010,06,04,09,33,1.60
2010,06,04,09,34,0.40
2010,06,04,09,35,4.20
2010,06,04,09,36,2.10
2010,06,04,09,37,0.40
2010,06,04,09,38,1.50
2010,06,04,09,39,5.50
2010,06,04,09,40,0.20
2010,06,04,09,41,0.10
2010,06,04,09,42,1.70
2010,06,04,09,43,0.60
2010,06,04,09,44,0.20
2010,06,04,09,45,3.90
2010,06,04,09,46,7.40
2010,06,04,09,47,5.80
2010,06,04,09,48,2.10
2010,06,04,09,49,0.80
2010,06,04,09,50,6.40
2010,06,04,09,51,6.10
2010,06,04,09,52,2.20
2010,06,04,09,53,5.70
2010,06,04,09,54,7.00
2010,06,04,09,55,1.20
2010,06,04,09,56,7.40
2010,06,04,09,57,5.80
2010,06,04,09,58,4.40
2010,06,04,09,59,6.90
2010,06,04,10,00,3.30
2010,06,04,10,01,1.70
2010,06,04,10,02,1.20
2010,06,04,10,03,7.50
2010,06,04,10,04,3.60
2010,06,04,10,05,8.00
2010,06,04,10,06,8.70
2010,06,04,10,07,5.90
2010,06,04,10,08,4.00
2010,06,04,10,09,3.80
2010,06,04,10,10,5.80
2010,06,04,10,11,3.50
2010,06,04,10,12,2.40
2010,06,04,10,13,3.40
2010,06,04,10,14,0.40
2010,06,04,10,15,3.70
2010,06,04,10,16,8.80
2010,06,04,10,17,12.20
2010,06,04,10,18,8.80
2010,06,04,10,19,3.90
2010,06,04,10,20,3.50
2010,06,04,10,21,3.00
2010,06,04,10,22,9.20
2010,06,04,10,23,8.10
2010,06,04,10,24,7.40
2010,06,04,10,25,7.60
2010,06,04,10,26,9.70
2010,06,04,10,27,8.50
2010,06,04,10,28,12.20
2010,06,04,10,29,9.80
2010,06,04,10,30,8.00
2010,06,04,10,31,5.20
2010,06,04,10,32,6.90
2010,06,04,10,33,7.10
2010,06,04,10,34,3.40
2010,06,04,10,35,6.10
2010,06,04,10,36,6.80
2010,06,04,10,37,7.90
2010,06,04,10,38,5.80
2010,06,04,10,39,2.70
2010,06,04,10,40,4.80
2010,06,04,10,41,6.60
2010,06,04,10,42,8.40
2010,06,04,10,43,7.60
2010,06,04,10,44,3.30
2010,06,04,10,45,5.00
2010,06,04,10,46,3.20
2010,06,04,10,47,6.10
2010,06,04,10,48,6.00
2010,06,04,10,49,5.20
2010,06,04,10,50,11.10
2010,06,04,10,51,2.90
2010,06,04,10,52,6.20
2010,06,04,10,53,7.20
2010,06,04,10,54,9.00
2010,06,04,10,55,6.70
2010,06,04,10,56,5.80
2010,06,04,10,57,4.00
2010,06,04,10,58,7.50
2010,06,04,10,59,5.20
2010,06,04,11,00,3.30
2010,06,04,11,01,7.90
2010,06,04,11,02,3.40
2010,06,04,11,03,9.80
2010,06,04,11,04,6.60
2010,06,04,11,05,8.70
2010,06,04,11,06,5.90
2010,06,04,11,07,9.40
2010,06,04,11,08,3.20
2010,06,04,11,09,9.20
2010,06,04,11,10,13.00
2010,06,04,11,11,12.70
2010,06,04,11,12,8.90
2010,06,04,11,13,6.40
2010,06,04,11,14,2.10
2010,06,04,11,15,5.80
2010,06,04,11,16,5.40
2010,06,04,11,17,4.20
2010,06,04,11,18,4.10
2010,06,04,11,19,8.00
2010,06,04,11,20,4.80
2010,06,04,11,21,5.20
2010,06,04,11,22,7.60
2010,06,04,11,23,4.70
2010,06,04,11,24,5.00
2010,06,04,11,25,3.70
2010,06,04,11,26,4.90
2010,06,04,11,27,2.90
2010,06,04,11,28,7.80
2010,06,04,11,29,11.80
2010,06,04,11,30,5.90
2010,06,04,11,31,4.60
2010,06,04,11,32,7.80
2010,06,04,11,33,4.50
2010,06,04,11,34,6.50
2010,06,04,11,35,10.10
2010,06,04,11,36,4.90
2010,06,04,11,37,4.00
2010,06,04,11,38,6.10
2010,06,04,11,39,5.40
2010,06,04,11,40,4.40
2010,06,04,11,41,7.80
2010,06,04,11,42,7.90
2010,06,04,11,43,8.80
2010,06,04,11,44,10.50
2010,06,04,11,45,17.30
2010,06,04,11,46,6.80
2010,06,04,11,47,7.60
2010,06,04,11,48,5.30
2010,06,04,11,49,6.80
2010,06,04,11,50,11.00
2010,06,04,11,51,9.50
2010,06,04,11,52,9.70
2010,06,04,11,53,7.80
2010,06,04,11,54,13.30
2010,06,04,11,55,4.50
2010,06,04,11,56,6.70
2010,06,04,11,57,7.80
2010,06,04,11,58,9.50
2010,06,04,11,59,9.70
2010,06,04,12,00,8.60
2010,06,04,12,01,11.50
2010,06,04,12,02,19.70
2010,06,04,12,03,16.20
2010,06,04,12,04,16.60
2010,06,04,12,05,18.30
2010,06,04,12,06,9.50
2010,06,04,12,07,6.60
2010,06,04,12,08,7.20
2010,06,04,12,09,6.40
2010,06,04,12,10,11.40
2010,06,04,12,11,12.00
2010,06,04,12,12,5.80
2010,06,04,12,13,6.90
2010,06,04,12,14,11.50
2010,06,04,12,15,11.40
2010,06,04,12,16,12.30
2010,06,04,12,17,11.00
2010,06,04,12,18,7.50
2010,06,04,12,19,6.40
2010,06,04,12,20,7.90
2010,06,04,12,21,12.30
2010,06,04,12,22,13.70
2010,06,04,12,23,18.50
2010,06,04,12,24,8.90
2010,06,04,12,25,10.10
2010,06,04,12,26,15.80
2010,06,04,12,27,11.70
2010,06,04,12,28,12.30
2010,06,04,12,29,13.50
2010,06,04,12,30,13.60
2010,06,04,12,31,13.40
2010,06,04,12,32,8.20
2010,06,04,12,33,20.80
2010,06,04,12,34,8.20
2010,06,04,12,35,4.80
2010,06,04,12,36,7.00
2010,06,04,12,37,9.70
2010,06,04,12,38,14.40
2010,06,04,12,39,18.70
2010,06,04,12,40,18.30
2010,06,04,12,41,17.60
2010,06,04,12,42,15.90
2010,06,04,12,43,19.20
2010,06,04,12,44,15.40
2010,06,04,12,45,17.20
2010,06,04,12,46,18.40
2010,06,04,12,47,17.90
2010,06,04,12,48,9.10
2010,06,04,12,49,6.40
2010,06,04,12,50,21.50
2010,06,04,12,51,13.80
2010,06,04,12,52,13.40
2010,06,04,12,53,14.00
2010,06,04,12,54,7.60
2010,06,04,12,55,7.50
2010,06,04,12,56,9.50
2010,06,04,12,57,14.50
2010,06,04,12,58,8.60
2010,06,04,12,59,8.30
2010,06,04,13,00,8.80
2010,06,04,13,01,7.60
2010,06,04,13,02,9.10
2010,06,04,13,03,9.10
2010,06,04,13,04,11.50
2010,06,04,13,05,11.20
2010,06,04,13,06,13.00
2010,06,04,13,07,14.70
2010,06,04,13,08,11.60
2010,06,04,13,09,14.20
2010,06,04,13,10,9.60
2010,06,04,13,11,10.00
2010,06,04,13,12,12.40
2010,06,04,13,13,11.50
2010,06,04,13,14,19.50
2010,06,04,13,15,15.10
2010,06,04,13,16,12.50
2010,06,04,13,17,7.60
2010,06,04,13,18,22.30
2010,06,04,13,19,19.50
2010,06,04,13,20,13.40
2010,06,04,13,21,12.80
2010,06,04,13,22,17.10
2010,06,04,13,23,6.10
2010,06,04,13,24,5.60
2010,06,04,13,25,4.90
2010,06,04,13,26,6.70
2010,06,04,13,27,17.30
2010,06,04,13,28,14.10
2010,06,04,13,29,7.70
2010,06,04,13,30,9.70
2010,06,04,13,31,15.60
2010,06,04,13,32,9.00
2010,06,04,13,33,9.10
2010,06,04,13,34,6.70
2010,06,04,13,35,8.80
2010,06,04,13,36,7.20
2010,06,04,13,37,11.60
2010,06,04,13,38,9.40
2010,06,04,13,39,6.50
2010,06,04,13,40,9.30
2010,06,04,13,41,7.70
2010,06,04,13,42,14.90
2010,06,04,13,43,12.40
2010,06,04,13,44,10.70
2010,06,04,13,45,8.70
2010,06,04,13,46,18.50
2010,06,04,13,47,11.80
2010,06,04,13,48,8.50
2010,06,04,13,49,13.20
2010,06,04,13,50,6.90
2010,06,04,13,51,7.90
2010,06,04,13,52,14.10
2010,06,04,13,53,13.60
2010,06,04,13,54,12.10
2010,06,04,13,55,10.30
2010,06,04,13,56,10.10
2010,06,04,13,57,16.70
2010,06,04,13,58,19.80
2010,06,04,13,59,18.00
2010,06,04,14,00,21.10
2010,06,04,14,01,17.60
2010,06,04,14,02,19.10
2010,06,04,14,03,12.40
2010,06,04,14,04,15.30
2010,06,04,14,05,10.00
2010,06,04,14,06,10.20
2010,06,04,14,07,18.60
2010,06,04,14,08,17.30
2010,06,04,14,09,14.10
2010,06,04,14,10,15.90
2010,06,04,14,11,14.80
2010,06,04,14,12,16.40
2010,06,04,14,13,13.50
2010,06,04,14,14,14.20
2010,06,04,14,15,10.70
2010,06,04,14,16,10.10
2010,06,04,14,17,18.40
2010,06,04,14,18,11.60
2010,06,04,14,19,15.50
2010,06,04,14,20,16.50
2010,06,04,14,21,9.80
2010,06,04,14,22,13.00
2010,06,04,14,23,15.00
2010,06,04,14,24,16.70
2010,06,04,14,25,14.30
2010,06,04,14,26,11.20
2010,06,04,14,27,9.50
2010,06,04,14,28,14.60
2010,06,04,14,29,9.00
2010,06,04,14,30,17.00
2010,06,04,14,31,7.80
2010,06,04,14,32,14.30
2010,06,04,14,33,22.30
2010,06,04,14,34,17.00
2010,06,04,14,35,19.90
2010,06,04,14,36,15.90
2010,06,04,14,37,13.00
2010,06,04,14,38,13.60
2010,06,04,14,39,10.80
2010,06,04,14,40,16.60
2010,06,04,14,41,21.80
2010,06,04,14,42,19.20
2010,06,04,14,43,19.40
2010,06,04,14,44,16.80
2010,06,04,14,45,11.60
2010,06,04,14,46,14.60
2010,06,04,14,47,13.50
2010,06,04,14,48,11.60
2010,06,04,14,49,17.40
2010,06,04,14,50,10.50
2010,06,04,14,51,10.80
2010,06,04,14,52,9.50
2010,06,04,14,53,10.40
2010,06,04,14,54,13.80
2010,06,04,14,55,13.90
2010,06,04,14,56,14.20
2010,06,04,14,57,10.10
2010,06,04,14,58,9.90
2010,06,04,14,59,14.00
2010,06,04,15,00,7.70
2010,06,04,15,01,11.70
2010,06,04,15,02,10.50
2010,06,04,15,03,16.00
2010,06,04,15,04,20.70
2010,06,04,15,05,26.00
2010,06,04,15,06,16.20
2010,06,04,15,07,13.60
2010,06,04,15,08,12.60
2010,06,04,15,09,18.80
2010,06,04,15,10,16.70
2010,06,04,15,11,12.20
2010,06,04,15,12,16.20
2010,06,04,15,13,11.50
2010,06,04,15,14,13.00
2010,06,04,15,15,10.00
2010,06,04,15,16,12.90
2010,06,04,15,17,9.40
2010,06,04,15,18,21.10
2010,06,04,15,19,14.30
2010,06,04,15,20,12.10
2010,06,04,15,21,11.00
2010,06,04,15,22,10.70
2010,06,04,15,23,25.10
2010,06,04,15,24,21.30
2010,06,04,15,25,12.40
2010,06,04,15,26,16.30
2010,06,04,15,27,19.50
2010,06,04,15,28,12.50
2010,06,04,15,29,13.80
2010,06,04,15,30,18.80
2010,06,04,15,31,13.80
2010,06,04,15,32,11.50
2010,06,04,15,33,11.00
2010,06,04,15,34,9.90
2010,06,04,15,35,11.70
2010,06,04,15,36,14.40
2010,06,04,15,37,12.00
2010,06,04,15,38,11.00
2010,06,04,15,39,10.80
2010,06,04,15,40,6.40
2010,06,04,15,41,11.60
2010,06,04,15,42,18.50
2010,06,04,15,43,24.20
2010,06,04,15,44,16.40
2010,06,04,15,45,11.30
2010,06,04,15,46,13.00
2010,06,04,15,47,10.50
2010,06,04,15,48,15.30
2010,06,04,15,49,18.20
2010,06,04,15,50,14.70
2010,06,04,15,51,18.70
2010,06,04,15,52,22.10
2010,06,04,15,53,13.80
2010,06,04,15,54,16.20
2010,06,04,15,55,21.40
2010,06,04,15,56,14.00
2010,06,04,15,57,9.70
2010,06,04,15,58,16.50
2010,06,04,15,59,10.70
2010,06,04,16,00,16.70
2010,06,04,16,01,13.70
2010,06,04,16,02,12.70
2010,06,04,16,03,21.40
2010,06,04,16,04,15.70
2010,06,04,16,05,13.90
2010,06,04,16,06,10.50
2010,06,04,16,07,16.20
2010,06,04,16,08,16.00
2010,06,04,16,09,15.30
2010,06,04,16,10,12.50
2010,06,04,16,11,10.40
2010,06,04,16,12,10.50
2010,06,04,16,13,11.40
2010,06,04,16,14,8.20
2010,06,04,16,15,12.10
2010,06,04,16,16,8.10
2010,06,04,16,17,12.80
2010,06,04,16,18,11.60
2010,06,04,16,19,12.60
2010,06,04,16,20,10.80
2010,06,04,16,21,14.10
2010,06,04,16,22,14.60
2010,06,04,16,23,14.30
2010,06,04,16,24,15.60
2010,06,04,16,25,11.70
2010,06,04,16,26,14.00
2010,06,04,16,27,13.80
2010,06,04,16,28,8.80
2010,06,04,16,29,12.40
2010,06,04,16,30,8.50
2010,06,04,16,31,14.70
2010,06,04,16,32,14.00
2010,06,04,16,33,15.50
2010,06,04,16,34,14.40
2010,06,04,16,35,18.90
2010,06,04,16,36,14.90
2010,06,04,16,37,17.40
2010,06,04,16,38,13.80
2010,06,04,16,39,9.40
2010,06,04,16,40,15.00
2010,06,04,16,41,14.60
2010,06,04,16,42,12.50
2010,06,04,16,43,12.50
2010,06,04,16,44,12.10
2010,06,04,16,45,20.80
2010,06,04,16,46,13.00
2010,06,04,16,47,15.80
2010,06,04,16,48,14.50
2010,06,04,16,49,15.00
2010,06,04,16,50,15.00
2010,06,04,16,51,15.80
2010,06,04,16,52,9.70
2010,06,04,16,53,15.40
2010,06,04,16,54,13.90
2010,06,04,16,55,11.30
2010,06,04,16,56,11.90
2010,06,04,16,57,11.70
2010,06,04,16,58,16.70
2010,06,04,16,59,15.70
2010,06,04,17,00,18.80
2010,06,04,17,01,18.10
2010,06,04,17,02,21.20
2010,06,04,17,03,16.20
2010,06,04,17,04,18.40
2010,06,04,17,05,19.00
2010,06,04,17,06,22.70
2010,06,04,17,07,21.10
2010,06,04,17,08,19.30
2010,06,04,17,09,9.60
2010,06,04,17,10,15.20
2010,06,04,17,11,18.10
2010,06,04,17,12,19.90
2010,06,04,17,13,14.50
2010,06,04,17,14,9.10
2010,06,04,17,15,12.20
2010,06,04,17,16,8.80
2010,06,04,17,17,16.10
2010,06,04,17,18,15.00
2010,06,04,17,19,12.20
2010,06,04,17,20,14.50
2010,06,04,17,21,7.00
2010,06,04,17,22,12.50
2010,06,04,17,23,9.30
2010,06,04,17,24,13.00
2010,06,04,17,25,12.80
2010,06,04,17,26,10.80
2010,06,04,17,27,15.40
2010,06,04,17,28,13.50
2010,06,04,17,29,9.00
2010,06,04,17,30,12.30
2010,06,04,17,31,12.50
2010,06,04,17,32,14.70
2010,06,04,17,33,11.60
2010,06,04,17,34,15.80
2010,06,04,17,35,10.60
2010,06,04,17,36,9.80
2010,06,04,17,37,15.90
2010,06,04,17,38,13.60
2010,06,04,17,39,14.60
2010,06,04,17,40,13.90
2010,06,04,17,41,14.00
2010,06,04,17,42,23.00
2010,06,04,17,43,19.40
2010,06,04,17,44,21.60
2010,06,04,17,45,12.10
2010,06,04,17,46,14.50
2010,06,04,17,47,9.60
2010,06,04,17,48,12.80
2010,06,04,17,49,11.20
2010,06,04,17,50,6.20
2010,06,04,17,51,17.90
2010,06,04,17,52,18.70
2010,06,04,17,53,17.00